Weather History for Punta Gorda, FL

Change the Weather History Date:

Saturday, April 6, 2013

  Actual Average Record
Temperature  
Mean Temperature 68 °F -  
Max Temperature 82 °F 81 °F 91 °F (1999)
Min Temperature 57 °F 58 °F 48 °F (2004)
Cooling Degree Days 4    
Growing Degree Days 18 (Base 50)    
Moisture  
Dew Point 56 °F    
Average Humidity 74    
Maximum Humidity 94    
Minimum Humidity 42    
Precipitation  
Precipitation 0.00 in - - ()
Sea Level Pressure  
Sea Level Pressure 30.06 in    
Wind  
Wind Speed 9 mph (NNE)    
Max Wind Speed 15 mph    
Max Gust Speed 22 mph    
Visibility 10 miles    
Events      
Averages and records for this station are not official NWS values.
T = Trace of Precipitation, MM = Missing Value Source: NWS Daily Summary

Daily Weather History Graph

Daily Weather History Graph

Search for Another Location

Airport:

Trip Planner

Search our weather history database for the weather conditions in past years. The results will help you decide how hot, cold, wet, or windy it might be!

Date:

Astronomy

Apr. 06, 2013 Rise Set
Actual Time 7:13 AM EDT 7:47 PM EDT
Civil Twilight 6:49 AM EDT 8:11 PM EDT
Nautical Twilight 6:22 AM EDT 8:38 PM EDT
Astronomical Twilight 5:54 AM EDT 9:06 PM EDT
Moon 4:36 AM EDT (4/6) 4:32 PM EDT (4/6)
Length of Visible Light 13h 21m
Length of Day
12h 34m
Waning Crescent, 15% of the Moon is Illuminated
Apr 6
Waning Crescent
Apr 10
New
Apr 18
First Quarter
Apr 25
Full
May 2
Last Quarter

Hourly Weather History & Observations

Time (EDT) Temp. Heat Index Dew Point Humidity Pressure Visibility Wind Dir Wind Speed Gust Speed Precip Events Conditions
12:25 AM 62.6 °F - 55.4 °F 77% 30.01 in 10.0 mi NW 9.2 mph - N/A   Mostly Cloudy
12:43 AM 62.6 °F - 55.4 °F 77% 30.01 in 10.0 mi NW 8.1 mph - N/A   Mostly Cloudy
12:53 AM 61.0 °F - 55.9 °F 83% 30.01 in 10.0 mi NW 9.2 mph - N/A   Mostly Cloudy
1:32 AM 62.6 °F - 57.2 °F 82% 30.01 in 10.0 mi NNW 11.5 mph - N/A   Mostly Cloudy
1:53 AM 62.1 °F - 57.0 °F 84% 30.02 in 10.0 mi NNW 12.7 mph - N/A   Overcast
2:07 AM 62.6 °F - 57.2 °F 82% 30.01 in 10.0 mi North 12.7 mph - N/A   Overcast
2:26 AM 62.6 °F - 57.2 °F 82% 30.01 in 10.0 mi North 10.4 mph - N/A   Overcast
2:53 AM 62.1 °F - 57.0 °F 84% 30.02 in 10.0 mi North 10.4 mph - N/A   Overcast
3:45 AM 60.8 °F - 57.2 °F 88% 30.01 in 10.0 mi NNE 9.2 mph - N/A   Overcast
3:53 AM 61.0 °F - 57.0 °F 87% 30.01 in 10.0 mi NNE 11.5 mph - N/A   Overcast
4:08 AM 60.8 °F - 55.4 °F 82% 30.02 in 10.0 mi NNE 11.5 mph - N/A   Overcast
4:53 AM 59.0 °F - 55.0 °F 87% 30.02 in 10.0 mi NNE 8.1 mph - N/A   Scattered Clouds
5:26 AM 59.0 °F - 55.4 °F 88% 30.03 in 10.0 mi North 8.1 mph - N/A   Mostly Cloudy
5:53 AM 57.9 °F - 55.0 °F 90% 30.03 in 10.0 mi North 6.9 mph - N/A   Mostly Cloudy
6:00 AM 59.0 °F - 55.4 °F 88% 30.04 in 10.0 mi NNE 8.1 mph - N/A   Mostly Cloudy
6:17 AM 57.2 °F - 55.4 °F 94% 30.05 in 10.0 mi NNE 6.9 mph - N/A   Scattered Clouds
6:43 AM 57.2 °F - 55.4 °F 94% 30.06 in 10.0 mi North 8.1 mph - N/A   Mostly Cloudy
6:53 AM 59.0 °F - 55.0 °F 87% 30.07 in 10.0 mi North 9.2 mph - N/A   Overcast
7:53 AM 59.0 °F - 55.0 °F 87% 30.09 in 10.0 mi North 9.2 mph - N/A   Overcast
8:07 AM 59.0 °F - 53.6 °F 82% 30.09 in 10.0 mi North 10.4 mph - N/A   Scattered Clouds
8:53 AM 62.1 °F - 53.1 °F 72% 30.10 in 10.0 mi North 9.2 mph - N/A   Clear
9:53 AM 64.9 °F - 53.1 °F 65% 30.10 in 10.0 mi NNE 11.5 mph - N/A   Scattered Clouds
10:53 AM 68.0 °F - 53.1 °F 59% 30.10 in 10.0 mi NNE 8.1 mph - N/A   Clear
11:53 AM 71.1 °F - 54.0 °F 55% 30.10 in 10.0 mi NNE 12.7 mph 16.1 mph N/A   Clear
12:53 PM 73.9 °F - 55.0 °F 52% 30.10 in 10.0 mi East 4.6 mph - N/A   Partly Cloudy
1:53 PM 75.9 °F - 55.0 °F 48% 30.09 in 10.0 mi ENE 9.2 mph - N/A   Mostly Cloudy
2:53 PM 80.1 °F 80.1 °F 55.0 °F 42% 30.06 in 10.0 mi East 15.0 mph 21.9 mph N/A   Scattered Clouds
3:53 PM 78.1 °F - 54.0 °F 43% 30.06 in 10.0 mi East 9.2 mph - N/A   Mostly Cloudy
4:53 PM 79.0 °F - 54.0 °F 42% 30.04 in 10.0 mi ESE 9.2 mph - N/A   Scattered Clouds
5:53 PM 75.9 °F - 57.9 °F 54% 30.04 in 10.0 mi SW 9.2 mph 16.1 mph N/A   Partly Cloudy
6:53 PM 75.0 °F - 59.0 °F 57% 30.06 in 10.0 mi West 12.7 mph - N/A   Overcast
7:53 PM 71.1 °F - 60.1 °F 68% 30.08 in 10.0 mi WNW 5.8 mph - N/A   Overcast
8:53 PM 71.1 °F - 60.1 °F 68% 30.10 in 10.0 mi Calm Calm - N/A   Overcast
9:53 PM 69.1 °F - 57.0 °F 65% 30.12 in 10.0 mi ENE 9.2 mph - N/A   Mostly Cloudy
10:53 PM 66.0 °F - 57.9 °F 75% 30.12 in 10.0 mi East 12.7 mph - N/A   Clear
11:53 PM 63.0 °F - 57.9 °F 84% 30.12 in 10.0 mi ENE 5.8 mph - N/A   Clear